www.pogodaiklimat.ru
Время
и дата
07:52 05.12
08:09 05.12
08:37 05.12
08:50 05.12
08:52 05.12
09:52 05.12
10:08 05.12
10:23 05.12
10:52 05.12
11:52 05.12
12:52 05.12
13:52 05.12
14:52 05.12
15:52 05.12
16:39 05.12
16:52 05.12
17:00 05.12
17:44 05.12
17:52 05.12
18:08 05.12
18:29 05.12
18:52 05.12
19:18 05.12
19:34 05.12
19:52 05.12
20:17 05.12
20:52 05.12
21:00 05.12
21:11 05.12
21:20 05.12
21:41 05.12
21:52 05.12
22:00 05.12
22:12 05.12
22:32 05.12
22:48 05.12
22:52 05.12
23:00 05.12
23:52 05.12
23:59 05.12
00:10 06.12
00:25 06.12
00:44 06.12
00:52 06.12
01:32 06.12
01:52 06.12
02:28 06.12
02:52 06.12
Ветер
(напр.,м/с)
Видим. Явления Облачность Т
(С)
Тd
(С)
f
(%)
Тe
(С)
Тes
(С)
Комфортность P
(гПа)
Po
(гПа)
Тmin
(С)
Tmax
(С)
R
(мм)
R24
(мм)
S
(см)
СЗ 4
{8}
14 км неопределенные осадки 10/10 690 м -0.6 -3.9 78 -8 -8 1003.0 941.7
З 4
{6}
16 км 10/10 630 м -0.6 -3.9 78 -9 -9 942.0
З 4
{7}
16 км 10/10 600 м -1.1 -4.4 78 -10 -10 942.3
З 4
{7}
16 км слабый снег 10/10 720 м -1.0 -4.0 80 -9 -9 942.7
З 4
{7}
14 км слабый снег 10/10 660 м -1.1 -4.4 78 -10 -10 1003.9 942.7
СЗ 4
{8}
16 км 10/10 570 м -2.2 -5.6 77 -11 -11 1004.7 943.3
СЗ 5
{7}
16 км 8/8 570 м -2.2 -6.1 75 -11 -11 943.9
СЗ 4
{8}
16 км 8/8 570 м -2.2 -6.1 75 -11 -11 944.6
СЗ 4
{6}
16 км 10/10 600 м -2.2 -6.1 75 -10 -10 1007.5 945.8
С 4
{7}
16 км 10/10 510 м -2.2 -5.6 77 -11 -11 1008.9 947.1 -2.8 +1.1
СЗ 5
{7}
16 км 10/10 480 м -2.2 -6.1 75 -11 -11 1010.6 948.7
СЗ 3
{7}
16 км 10/10 570 м -2.2 -6.1 75 -10 -10 1012.5 950.3
С 3
{6}
8 км слабый снег 10/10 570 м -2.2 -5.6 77 -10 -10 1014.3 952.2
СЗ 4
{6}
14 км слабый снег 10/10 540 м -2.8 -5.6 81 -11 -11 1016.0 953.8
СЗ 5
{7}
16 км 10/10 540 м -2.8 -7.2 72 -12 -12 955.1
СЗ 4
{8}
16 км 10/10 900 м -2.8 -7.2 72 -11 -11 1017.9 955.7
СЗ 5
{7}
16 км 10/10 840 м -2.8 -7.2 72 -12 -12 955.7
СЗ 3
{5}
16 км 10/10 900 м -2.8 -7.2 72 -10 -10 957.0
СЗ 4
{7}
16 км 10/10 900 м -2.8 -7.2 72 -11 -11 1019.7 957.3 -2.8 -2.2
СЗ 3
{6}
16 км 10/10 870 м -2.8 -7.2 72 -10 -10 957.6
С 3
{6}
16 км 10/10 630 м -2.8 -7.2 72 -10 -10 958.3
СЗ 2 16 км 10/10 1290 м -2.8 -6.7 74 -9 -9 1021.2 958.6
СЗ 6
{9}
8 км слабый снег, дымка 10/10 450 м -5.6 -7.8 84 -17 -17 959.5
СЗ 6
{8}
3 км слабый снег 10/10 420 м -7.2 -10.0 80 -18 -18 960.2
СЗ 5
{8}
2 км слабый снег, дымка 10/10 510 м -7.8 -10.0 84 -18 -18 1023.6 960.5
СЗ 4
{8}
2 км слабый снег, дымка ?/? -8.3 -10.6 83 -19 -19 961.1
СЗ 4
{7}
3 км слабый снег, дымка 10/10 390 м -9.4 -11.7 83 -20 -20 1025.3 962.1 0.3
СЗ 4
{7}
4 км слабый снег 10/10 390 м -9.4 -12.2 80 -20 -20 962.1
СЗ 5
{7}
5 км слабый снег 10/10 390 м -10.0 -12.8 80 -21 -21 962.4
СЗ 5
{8}
3 км слабый снег 10/10 420 м -10.0 -12.8 80 -21 -21 962.7
СЗ 4
{7}
8 км слабый снег 10/10 420 м -10.6 -13.9 77 -21 -21 963.4
СЗ 4
{8}
8 км слабый снег 10/10 420 м -11.1 -14.4 77 -22 -22 1027.5 963.7
СЗ 3
{7}
11 км слабый снег 8/8 330 м -11.1 -15.6 69 -20 -20 964.0
СЗ 3
{7}
16 км 8/8 510 м -11.1 -15.6 69 -20 -20 964.3
СЗ 3
{5}
4 км слабый снег 10/10 480 м -11.7 -15.0 76 -20 -20 964.3
СЗ 4
{6}
4 км слабый снег 10/10 420 м -13.0 -16.0 78 -24 -24 964.6
СЗ 4
{6}
4 км слабый снег 10/10 420 м -12.8 -16.1 76 -24 -24 1028.6 964.6
СЗ 4
{7}
6 км неопределенные осадки 10/10 360 м -13.3 -16.7 76 -25 -25 965.0
СЗ 4
{6}
16 км 10/10 360 м -15.0 -18.9 72 -26 -26 1030.1 965.9 -15.0 -2.8 0.5
СЗ 4
{6}
16 км 10/10 270 м -15.6 -18.9 76 -27 -27 965.9
СЗ 3
{5}
16 км 8/8 300 м -15.6 -18.9 76 -26 -26 966.2
СЗ 3
{5}
16 км 5/5 300 м
[Ac]
-15.6 -18.9 76 -25 -25 966.5
СЗ 3 11 км 8/8 300 м -16.1 -19.4 76 -26 -26 966.5
СЗ 2
{4}
11 км 8/8 300 м -16.1 -19.4 76 -25 -25 1030.7 966.5
СЗ 3 14 км 10/10 270 м -16.1 -19.4 76 -26 -26 966.9
СЗ 2 16 км 10/10 300 м -16.7 -20.0 76 -26 -26 1031.3 966.9
СЗ 3
{5}
16 км 2/2 360 м -16.1 -20.6 68 -27 -27 967.2
СЗ 3 16 км ясно -16.7 -20.0 76 -27 -27 1031.4 966.9
Местоположение метеостанции Bismarck Municipal Airport: широта 46.7825 долгота -100.7572 высота над уровнем моря 511 м.
В архиве по умолчанию представлена погода в Бисмарке за последние 1-2 суток. Обновление информации о фактической погоде в базе происходит ежечасно! Архивные данные за месяц целиком и за предыдущие месяцы Вы можете получить, выбрав интересующий диапазон дат из раскрывающегося списка и нажав кнопку "Ввод!".
Внимание! Архив погоды МЕТАР в базе сайта по станциям, не включенным в климатический монитор, хранится не более 60 дней. Нет смысла пытаться выбрать более раннюю дату.
*Определитесь, кто Вы:
Внимание! Время в таблицах - местное (без учета летнего времени). Для получения всемирного времени необходимо вычесть поправку, которая равна -6 ч.
Смотрите также архив погоды в соседних городах и на ближайших метеорологических станциях:
Партнеры нашего сайта:      
Пояснения к столбцам:
  • Ветер - указаны скорость ветра в м/с - средняя за 10 мин, порывы в срок и между сроками (в фигурных скобках) и направление, откуда дует ветер: С - северный,
  • СВ - северо-восточный, В - восточный, ЮВ - юго-восточный, Ю - южный, ЮЗ - юго-западный, З - западный, СЗ - северо-западный.
  • Видимость - горизонтальная дальность видимости в метрах или километрах. При видимости от 1 до 10 км при отсутствии осадков обычно наблюдается дымка, при ухудшении видимости до 1 км и менее - туман. В сухую погоду видимость может ухудшаться дымом, пылью или мглою.
  • Явления - указаны атмосферные явления, наблюдавшиеся в срок или в последний час перед сроком; фигурными скобками обозначены явления, наблюдавшиеся между сроками (за 1-3 часа до срока); квадратными скобками обозначены град или гололедные отложения с указанием их диаметра в мм.
  • Облачность - указаны через наклонную черту общая и нижняя облачность в баллах и высота нижней границы облаков в метрах; квадратными скобками обозначены формы облаков: Ci - перистые, Cs - перисто-слоистые, Cc - перисто-кучевые, Ac - высококучевые, As - высокослоистые, Sc - слоисто-кучевые, Ns - слоисто-дождевые, Cu - кучевые, Cb - кучево-дождевые. Подробнее классификацию облаков см. в Атласе облаков (PDF).
  • T - Температура воздуха - температура, измеренная на высоте 2 м над землей.
  • Td - Температура точки росы - температура, при понижении до которой содержащийся в воздухе водяной пар достигнет насыщения.
  • f - Относительная влажность воздуха - влажноcть воздуха, измеренная на высоте 2 м над землей.
  • Te - Эффективная температура - температура, которую ощущает одетый по сезону человек в тени. Характеристика душности погоды. При расчете учитывается влияние влажности воздуха и скорости ветра на теплоощущения человека.
  • Tes - Эффективная температура на солнце - температура, которую ощущает человек, с поправкой на солнечный нагрев. Характеристика знойности погоды. Зависит от высоты солнца над горизонтом, облачности и скорости ветра. Ночью, в пасмурную погоду, а также при ветре 12 м/с и более поправка равна нулю.
  • P - Атмосферное давление - приведенное к уровню моря атмосферное давление.
  • Po - Атмосферное давление - измеренное на уровне метеостанции атмосферное давление.
  • Tmin - Минимальная температура - минимум температуры воздуха на высоте 2 м над землей.
  • Tmax - Максимальная температура - максимум температуры воздуха на высоте 2 м над землей.
  • R - Количество осадков - Количество выпавших осадков за период времени, мм. При наведении курсора мыши на число - период времени, за который выпало указанное количество осадков.
  • R24 - Количество осадков - Количество выпавших осадков за 24 часа, мм.
  • S - Снежный покров - Высота снежного покрова, см. При наведении курсора мыши на число - состояние снежного покрова и степень покрытия местности в баллах.